Theta_e
320 319 320 320 317 317 320 320 324 326 326 326 322 322 320 319 321 321 323 322 321 322 321 323 329 330 327 327 330 330 331 333 334 335 337 333 332 334 332 331 330 332 330 324 323 316 310 313 318 324 327 330 330 327 327 329 331 330 328 326 323 320 316 316 321 322 319 317 318 321 323 321 322 323 322 320 316 314 314 316 319 322 324 324 322 323 320 313 312 316 317 318 323 325 324 323 323
319 320 320 318 318 317 319 320 326 333 331 323 321 322 319 317 320 324 325 324 324 322 321 325 330 328 327 328 328 329 333 332 329 330 332 331 333 332 331 330 331 332 328 324 321 316 311 310 313 317 320 324 325 322 320 324 327 326 323 318 319 318 317 323 328 329 326 320 317 321 324 322 322 324 324 323 321 318 318 318 319 322 325 324 323 324 323 319 316 316 319 322 323 324 325 323 322
319 320 320 318 319 317 321 322 324 332 328 321 323 322 317 319 325 327 324 323 323 322 323 327 328 327 327 327 327 329 333 332 330 330 332 333 332 331 332 330 332 331 326 324 319 315 312 308 309 312 314 317 323 321 315 316 319 317 313 314 319 319 323 327 329 331 328 322 317 320 322 322 323 322 322 321 321 319 319 319 319 322 324 325 325 324 322 324 324 321 323 327 325 323 322 322 321
318 319 319 319 318 319 331 331 328 331 324 321 323 321 320 324 326 322 320 323 324 324 325 326 328 326 326 328 327 329 331 332 332 331 332 333 331 332 331 330 332 329 326 323 317 314 311 309 308 309 311 312 318 320 314 313 314 312 311 316 319 321 327 326 327 329 325 319 316 319 319 317 318 318 320 320 321 321 319 318 320 321 321 324 325 321 321 328 330 323 322 324 322 319 317 317 317
318 319 318 318 320 320 329 328 327 328 322 324 321 320 324 326 324 317 320 326 324 323 324 327 330 328 329 330 328 328 330 333 333 331 332 332 331 330 329 330 330 328 326 322 315 314 310 309 308 307 309 309 312 314 313 312 313 312 312 320 322 323 326 323 324 325 320 318 315 318 321 319 316 315 318 318 319 322 320 318 320 322 324 326 325 323 322 326 328 321 316 317 316 316 315 314 315
317 318 318 318 320 318 323 321 322 326 324 326 321 322 324 319 320 318 322 327 323 322 322 326 329 328 330 330 329 327 329 333 333 331 331 331 330 328 328 329 328 328 326 319 314 312 310 308 308 307 308 310 310 310 313 314 315 314 312 320 325 324 321 321 325 323 319 319 317 321 322 321 319 316 316 318 320 322 321 320 320 322 325 327 326 325 324 325 326 321 315 314 314 314 314 314 316
317 318 318 319 319 318 327 326 327 330 322 319 319 322 320 313 317 320 323 326 325 322 321 325 326 327 331 331 331 331 332 334 332 331 331 330 328 326 327 327 327 327 323 317 313 311 309 308 308 307 310 315 311 310 318 322 320 315 312 317 324 325 320 321 325 323 322 318 318 323 321 320 320 318 318 320 322 322 321 321 321 321 323 326 326 325 324 324 324 321 318 314 314 314 314 315 317
318 319 317 322 324 324 332 327 328 330 317 312 313 316 316 314 318 321 322 323 323 321 321 325 324 327 332 330 332 334 333 333 331 331 331 329 327 325 325 325 327 327 321 315 312 311 309 308 308 308 311 315 311 313 324 327 324 316 311 312 320 326 324 323 322 322 322 316 317 321 319 319 319 318 318 319 321 320 319 318 320 320 321 325 324 321 320 321 321 318 316 313 314 314 314 315 316
317 320 317 323 326 325 329 326 322 323 320 317 314 313 314 315 320 322 320 319 319 320 322 325 323 321 327 329 333 334 331 332 332 332 331 328 326 324 323 324 326 324 318 314 312 310 309 308 309 309 309 312 311 317 326 326 323 317 310 309 313 321 325 322 319 320 319 313 315 317 315 316 317 317 317 317 317 317 317 316 315 316 318 321 321 318 316 319 317 314 313 313 313 313 313 313 314
317 320 317 322 326 322 323 326 323 320 321 318 313 314 315 317 320 321 319 318 318 321 323 325 322 318 326 331 332 332 331 332 332 333 331 328 326 324 323 324 325 321 316 314 311 310 309 309 308 309 309 310 311 317 325 322 320 316 309 310 310 313 320 320 317 319 317 313 314 315 315 316 317 317 316 315 315 315 315 314 313 312 314 316 318 316 314 315 314 312 312 312 312 312 312 312 312
318 319 318 324 327 321 320 327 331 327 322 316 313 315 317 318 319 319 318 319 319 322 324 324 322 322 327 330 331 332 332 333 332 332 330 329 326 324 323 323 325 321 316 314 312 310 309 309 309 310 310 310 311 314 320 320 319 315 308 309 309 309 315 319 318 317 315 314 315 316 317 318 317 317 316 315 314 313 313 312 312 312 312 314 315 314 313 313 313 312 312 312 312 312 312 312 312
318 321 326 329 325 322 321 325 330 331 328 322 320 317 317 319 319 318 318 319 320 322 323 323 322 324 328 328 330 332 331 332 332 332 330 329 326 324 323 323 325 321 316 315 313 311 309 309 309 309 310 309 311 313 315 320 320 314 309 308 308 308 311 315 317 315 313 314 316 318 318 318 318 318 317 316 315 315 314 314 314 313 313 313 314 313 313 312 312 312 312 312 312 312 312 312 312
318 322 329 326 321 323 321 322 326 329 330 323 319 317 319 319 319 319 318 320 320 321 322 322 322 323 328 328 329 332 331 332 332 332 330 328 327 325 324 324 325 322 317 316 314 312 310 309 309 309 310 309 311 312 313 317 317 311 308 308 308 309 310 313 315 315 314 315 317 318 319 318 318 318 318 318 318 317 317 317 317 316 316 315 316 315 315 315 315 314 314 314 313 314 313 313 313
318 321 327 323 318 324 322 321 322 323 325 320 315 317 319 319 320 319 319 321 320 320 321 321 323 321 324 325 327 331 330 332 333 332 331 329 329 327 325 324 325 324 318 317 315 313 312 309 309 309 309 310 311 311 312 313 312 309 308 308 308 309 311 314 315 314 314 316 318 319 319 318 318 318 318 318 318 318 318 318 318 318 318 318 318 318 318 318 318 318 317 317 317 317 317 317 317
318 318 326 326 319 322 322 319 321 323 323 318 315 316 318 319 319 319 319 322 321 320 320 321 323 321 320 322 325 329 330 331 332 333 332 331 330 328 327 325 325 325 320 318 317 314 313 311 310 310 310 310 311 311 311 311 310 309 308 308 309 310 312 314 315 314 314 316 317 318 319 318 318 318 318 318 319 319 319 319 319 319 319 319 319 319 319 319 319 319 319 319 319 319 319 319 319
319 317 325 328 321 320 320 319 320 323 320 314 313 315 318 319 318 319 318 320 320 320 320 321 323 322 319 320 322 326 331 332 332 333 333 333 332 330 328 326 325 326 323 319 318 316 314 313 311 310 311 310 310 310 311 310 309 308 309 308 309 310 313 314 314 314 315 316 317 318 318 318 318 318 319 319 319 319 319 319 319 319 319 320 320 320 320 320 320 320 320 320 320 320 320 321 320
318 320 327 327 322 322 320 320 319 321 321 314 312 315 318 319 317 318 318 318 319 319 320 321 323 322 320 320 320 324 330 332 332 333 333 334 333 331 329 327 325 326 325 321 318 317 316 315 314 312 312 311 311 311 311 310 309 309 309 309 309 311 313 315 315 315 315 316 317 318 318 318 318 319 319 319 319 319 319 319 319 319 319 320 320 320 320 320 321 320 321 321 321 321 321 322 322
319 327 328 324 325 325 321 321 317 317 319 314 312 314 318 320 317 316 317 317 318 318 320 321 323 322 321 321 320 322 328 331 332 332 332 333 333 331 330 327 325 326 326 323 319 319 317 316 315 314 313 313 313 312 312 311 310 310 311 311 311 312 314 315 315 315 316 317 318 318 319 319 319 319 319 319 319 319 319 319 319 320 320 320 320 320 320 320 321 321 321 321 321 321 321 322 322
320 325 324 326 329 323 317 317 314 314 315 313 313 313 316 319 317 317 317 316 317 319 319 320 322 323 321 321 321 321 325 330 331 331 331 330 331 330 329 328 326 325 325 325 322 320 319 317 316 316 315 315 315 314 313 312 312 312 312 312 312 313 314 316 316 316 316 317 318 318 319 319 319 318 318 318 319 319 319 319 319 320 320 320 320 320 321 321 321 321 321 322 322 322 322 322 322
317 319 323 329 325 317 314 315 313 314 314 313 313 312 314 316 316 316 316 316 317 318 319 319 321 322 321 320 320 320 323 328 329 330 330 328 329 328 328 327 326 325 325 325 324 321 320 318 317 317 317 317 317 316 314 314 313 313 314 313 313 314 315 316 316 316 316 317 317 318 318 318 318 318 318 318 319 319 319 319 319 320 320 320 321 321 322 322 322 322 322 323 323 322 323 323 323
315 317 323 322 315 315 315 314 314 313 313 312 312 312 313 314 315 315 315 318 319 317 317 319 319 319 320 320 320 320 320 324 327 329 330 328 327 327 327 326 326 326 325 326 325 323 321 319 318 317 318 318 318 318 316 316 315 315 315 315 315 314 315 316 316 316 317 317 317 318 318 318 318 318 319 319 319 319 319 319 319 320 321 321 322 322 323 323 323 323 323 323 323 323 323 323 323
315 315 317 314 312 315 314 313 314 313 313 313 312 313 314 314 314 314 315 318 319 317 317 318 318 318 318 319 319 320 320 320 323 326 328 329 328 327 327 326 326 326 326 327 326 325 323 321 319 318 318 318 319 319 318 318 317 316 316 316 316 316 316 316 316 317 317 317 317 318 318 318 318 318 319 319 319 319 319 320 320 321 322 322 323 323 323 323 323 323 324 324 324 324 324 324 324
316 314 312 312 312 313 313 312 312 312 313 313 312 313 313 314 314 314 315 317 317 316 317 317 317 318 317 318 319 319 320 319 318 319 322 325 326 326 326 326 326 326 326 327 327 326 324 322 320 318 318 318 319 319 320 319 318 317 317 317 317 317 317 317 317 317 317 317 318 318 318 318 318 319 318 319 319 319 320 321 321 322 322 323 323 323 323 323 324 324 324 324 324 324 324 324 324
316 316 312 312 313 312 312 311 311 312 312 313 313 313 312 314 315 313 314 316 317 316 317 317 317 317 317 318 318 318 319 318 318 316 317 319 323 326 327 327 326 326 325 325 327 327 326 324 321 319 318 318 318 319 319 319 319 318 318 318 319 319 319 318 318 318 318 319 319 319 318 319 319 320 319 319 320 320 321 321 322 322 323 323 323 323 323 323 324 324 324 324 324 324 324 324 325
317 317 314 313 314 315 314 312 312 312 312 313 312 312 313 314 313 312 314 316 316 316 317 316 317 317 317 317 317 318 319 319 319 318 317 318 322 326 328 328 327 326 325 324 326 327 327 326 323 320 319 318 318 319 319 319 319 319 318 318 318 319 319 319 320 319 319 320 320 320 319 320 321 321 321 321 321 321 321 321 322 322 323 323 323 323 323 323 323 323 324 324 324 324 324 325 325
319 318 316 315 316 316 316 314 313 312 312 312 312 312 312 312 313 313 315 316 315 316 316 317 317 316 317 317 317 317 318 318 319 318 318 318 321 325 327 327 327 326 324 324 325 325 326 327 327 324 321 319 318 318 319 319 319 319 319 319 319 319 319 320 320 320 320 320 320 321 321 321 322 322 322 322 322 322 322 322 322 322 322 323 323 323 323 323 323 323 323 323 324 324 324 325 325
320 319 317 316 317 315 315 316 314 313 312 312 313 314 312 311 312 315 316 315 315 316 316 316 316 317 316 317 317 317 318 318 318 319 319 319 320 322 322 324 326 325 324 325 325 325 325 327 327 327 325 321 319 318 318 319 319 319 319 319 319 319 320 320 320 320 321 321 321 321 321 321 322 322 322 322 322 322 322 322 322 322 322 322 322 323 323 323 323 323 323 323 323 323 324 324 324
316 317 317 316 316 316 315 316 315 313 312 312 312 312 311 310 312 316 315 314 315 315 316 316 316 317 317 316 317 318 318 318 319 320 320 319 319 319 320 321 322 322 322 323 324 325 325 325 326 326 327 325 322 320 318 318 319 319 319 319 320 320 320 320 321 321 321 321 321 321 322 322 322 322 322 322 322 322 322 322 322 322 323 323 323 323 323 323 324 324 324 324 324 324 324 324 324
313 313 317 318 316 317 317 316 315 314 313 312 311 312 313 312 313 315 315 314 315 315 315 316 316 316 316 316 317 317 318 319 320 320 318 317 318 318 319 319 320 320 320 320 322 323 324 325 325 326 326 326 325 323 321 319 318 318 319 319 320 320 321 321 321 322 322 322 322 322 323 323 323 323 323 323 323 323 323 323 323 323 323 323 324 324 324 324 324 325 325 325 325 324 323 323 323
313 311 316 320 319 320 318 315 315 314 313 312 311 314 320 317 313 314 314 314 314 315 315 314 315 315 315 316 316 317 318 319 319 318 317 317 318 318 319 319 320 321 320 320 321 321 323 324 325 326 326 326 325 325 324 322 320 319 319 319 320 320 321 322 323 323 324 324 324 324 324 324 324 324 324 324 325 325 325 325 324 324 324 325 325 325 325 325 324 324 324 324 323 322 321 320 320
316 313 315 318 322 326 320 313 315 316 314 312 312 314 319 318 314 314 313 314 313 314 315 315 315 315 315 315 316 316 317 318 317 317 318 318 318 318 318 319 320 321 321 321 320 320 321 323 324 325 325 326 325 325 324 324 322 321 320 320 320 320 320 322 324 325 325 326 325 325 325 324 325 325 325 325 325 325 325 325 325 324 324 324 324 324 323 324 324 323 322 322 321 320 321 320 319
320 319 321 318 320 326 320 311 313 318 314 310 312 314 316 316 313 313 313 313 313 313 314 314 315 315 314 315 315 315 316 316 317 317 318 318 317 317 317 318 318 319 320 320 320 320 321 322 323 324 324 325 325 325 325 324 323 323 322 321 321 321 321 321 323 324 325 326 326 326 325 325 326 326 325 325 325 325 325 325 324 324 323 323 322 321 321 322 322 322 322 321 321 321 322 321 320
319 322 326 320 318 320 319 313 310 313 313 310 312 315 316 316 312 311 312 312 312 312 313 314 314 314 314 314 314 315 315 316 317 317 317 317 316 316 316 316 317 318 318 319 320 320 320 321 322 323 323 324 325 325 325 325 324 323 323 322 322 322 323 323 323 324 324 325 326 326 326 326 326 326 326 325 325 325 325 325 325 324 323 323 323 322 322 323 322 322 322 321 321 322 322 321 319
319 318 321 319 316 316 318 318 310 308 311 312 312 312 314 315 312 311 312 312 312 311 312 313 313 314 314 314 314 314 315 315 315 316 316 316 316 315 316 316 316 317 317 318 319 319 319 320 320 322 323 324 324 324 325 325 324 324 324 323 323 323 323 323 324 324 324 324 325 326 326 326 325 326 326 326 326 326 326 326 325 324 324 324 324 324 323 323 322 322 322 321 321 321 322 320 318
321 317 318 317 316 314 316 319 313 310 312 312 312 311 312 314 312 312 312 312 312 312 312 312 313 313 313 314 314 314 314 315 315 315 315 315 315 315 316 316 316 316 317 317 317 318 318 318 319 320 322 323 323 324 324 325 325 325 324 324 324 323 323 323 324 324 325 325 325 326 327 326 325 326 326 326 326 326 326 325 325 324 324 324 324 324 324 323 322 322 322 322 322 321 320 319 319
321 317 319 320 319 316 314 315 311 309 313 314 314 313 312 313 312 311 312 312 312 312 312 312 313 313 313 314 314 314 314 315 315 314 315 315 315 315 315 316 316 316 317 317 316 317 317 317 318 318 319 320 322 323 324 325 326 325 325 324 324 323 322 322 323 324 324 324 324 326 326 325 324 325 326 326 326 326 326 325 325 325 325 325 325 325 325 324 323 323 323 322 322 321 321 320 321
318 317 320 320 320 318 314 313 309 307 313 315 314 313 312 312 312 311 311 310 310 311 311 312 313 313 313 314 314 315 314 315 315 315 315 315 315 315 315 316 316 317 317 317 317 316 316 316 317 317 317 318 320 321 322 324 324 324 323 323 322 321 321 322 322 322 323 323 323 324 324 323 323 325 326 326 326 326 325 325 325 325 325 325 325 325 325 323 323 324 322 320 320 320 320 321 322
315 318 319 318 319 320 315 313 311 308 311 315 313 311 312 312 312 310 309 309 309 310 311 311 313 313 314 314 314 315 315 315 315 315 315 315 315 315 315 315 315 316 316 316 316 315 314 315 315 315 315 316 317 318 320 322 321 321 321 320 320 320 320 320 320 320 321 321 322 322 322 321 322 323 325 326 326 325 325 325 326 325 325 324 325 325 323 323 323 324 322 319 320 321 321 322 322
318 318 318 318 316 317 316 312 312 310 311 316 314 311 311 311 311 309 307 308 310 311 311 312 313 313 313 314 314 315 315 315 315 315 316 315 315 315 315 315 314 314 315 315 315 315 315 315 314 314 314 314 315 316 317 318 319 319 320 319 319 319 319 319 319 319 320 320 320 320 320 321 321 323 325 325 326 325 325 325 325 325 324 324 324 324 324 324 324 325 323 320 320 321 321 322 323
318 317 318 318 314 317 318 313 312 311 309 312 314 312 311 310 310 311 309 308 310 312 312 312 313 313 314 314 314 314 314 315 315 315 316 315 315 315 315 315 314 314 314 314 314 315 314 314 314 313 313 313 313 314 315 316 317 318 319 320 319 320 320 320 321 321 321 320 319 319 319 320 322 323 325 325 325 325 325 326 325 324 324 323 323 324 325 324 325 326 324 320 320 321 320 321 323
316 317 320 318 314 315 317 314 313 314 311 311 313 314 315 315 315 314 312 308 308 310 310 310 313 314 314 314 314 315 315 315 315 315 315 316 315 315 316 315 315 314 314 314 314 314 314 314 313 313 313 313 313 313 313 314 316 317 319 320 321 321 321 322 322 321 319 318 317 317 318 320 322 323 324 324 324 324 325 325 325 324 324 324 323 324 324 323 325 327 325 321 322 323 322 322 321
315 318 319 316 316 315 314 316 318 318 316 312 312 316 321 322 318 316 316 312 309 309 306 308 312 313 314 314 314 315 315 315 316 316 315 316 315 315 316 315 315 315 315 315 314 314 314 314 314 313 313 313 313 313 313 313 315 316 317 318 318 319 319 319 318 317 316 316 316 317 318 320 321 321 323 322 323 323 323 325 326 324 323 322 322 324 323 323 324 324 322 321 323 325 325 324 322
317 319 318 316 316 316 315 318 320 320 317 311 310 315 319 318 314 315 317 315 313 310 306 306 310 312 313 314 315 315 315 315 315 316 316 315 316 315 315 315 315 315 315 315 314 314 314 314 314 314 313 313 313 313 313 313 314 314 315 315 315 316 316 316 315 315 316 317 318 319 319 320 320 321 321 321 322 322 321 326 327 323 323 322 320 321 322 322 321 321 321 321 324 327 327 326 325
321 319 317 317 316 316 317 318 319 319 316 314 313 313 314 314 313 314 314 314 314 312 310 308 308 312 313 314 315 315 315 316 315 316 316 315 316 315 315 315 315 315 314 315 314 314 314 314 314 314 313 313 313 313 313 313 313 313 314 314 315 315 315 315 315 316 317 318 320 320 320 321 321 321 321 321 322 320 321 328 326 321 323 325 321 321 323 323 321 321 324 326 326 325 326 326 324
323 317 314 316 316 318 319 318 317 315 314 316 315 312 314 316 317 315 313 313 314 314 314 312 309 312 314 314 315 315 315 316 315 315 315 315 315 315 315 315 315 315 315 314 314 314 314 314 314 314 313 314 313 313 313 313 313 313 313 314 314 314 315 315 316 317 319 321 322 322 322 322 322 322 321 320 321 320 321 325 324 319 323 329 326 323 326 326 323 321 322 326 327 324 324 324 323
316 312 313 316 317 319 318 316 316 314 315 317 316 315 315 317 319 316 313 314 314 314 315 312 310 312 314 314 314 314 314 314 314 314 314 314 315 314 315 314 315 315 315 315 315 314 314 315 314 314 313 313 313 313 313 313 313 313 313 314 314 314 315 316 317 318 319 321 323 324 324 324 323 323 322 321 320 320 319 320 322 319 321 331 329 322 323 326 324 322 320 322 325 323 321 321 320
310 312 315 316 319 320 318 319 317 315 318 318 317 316 314 316 318 316 313 314 314 314 315 313 310 312 314 314 314 314 313 313 313 313 313 313 313 313 313 314 314 314 314 314 314 314 314 314 314 314 313 313 313 313 313 313 313 313 313 313 313 314 315 316 317 317 319 321 322 322 323 324 324 323 322 322 320 320 319 319 321 319 320 326 324 318 321 325 325 325 323 321 320 319 318 318 316
311 318 317 314 317 317 318 320 317 317 319 316 314 314 312 315 318 314 312 313 313 312 315 316 312 311 314 314 313 313 312 312 312 312 313 313 313 313 313 313 313 314 314 314 314 314 314 314 314 314 313 313 313 313 313 313 313 313 313 313 314 314 315 315 316 317 318 319 320 321 323 324 324 324 323 323 322 321 320 320 321 320 320 321 320 321 325 327 326 325 322 318 317 318 319 317 314
313 318 315 316 317 315 317 318 315 318 318 313 312 311 310 313 315 313 312 313 314 310 310 313 310 310 313 313 311 311 311 312 312 312 313 313 313 313 313 313 313 314 314 314 314 313 313 314 314 314 314 313 313 313 313 313 313 313 313 313 314 314 315 315 315 316 317 318 320 321 322 323 324 324 324 323 322 322 321 320 320 320 320 318 319 323 326 324 323 321 319 317 316 319 319 316 314
313 313 314 318 318 315 316 316 314 318 317 311 309 311 313 316 315 314 314 312 312 310 307 309 309 309 311 311 311 312 313 313 312 312 313 313 313 313 313 313 313 314 314 314 314 313 313 314 313 314 314 314 313 313 313 313 313 313 313 313 314 314 315 315 315 316 316 317 319 321 322 323 324 325 325 324 324 323 322 321 321 320 321 321 320 320 321 320 318 318 320 319 316 316 315 314 313
311 314 315 319 320 319 319 318 317 320 317 310 307 311 318 321 318 314 312 309 310 311 311 312 311 311 311 311 312 312 313 313 313 313 313 313 313 313 313 313 313 313 313 313 313 313 313 313 314 314 313 314 313 313 313 313 313 313 313 313 313 314 315 315 316 316 317 318 320 321 322 324 325 325 326 326 326 325 324 322 322 320 321 321 319 318 318 318 317 316 318 317 314 313 313 312 311
311 314 315 316 318 321 319 316 317 319 318 312 310 314 319 319 317 312 309 308 308 309 311 311 311 312 311 311 312 312 313 313 312 313 313 313 313 313 313 313 313 313 313 314 313 312 313 313 313 313 313 313 313 313 313 313 313 313 313 313 313 314 315 316 317 318 318 319 321 323 324 325 326 326 327 327 327 326 324 323 322 321 320 319 318 318 318 318 316 314 314 313 312 312 311 311 311
312 311 314 313 314 319 319 312 311 313 316 315 312 314 316 315 315 314 311 311 310 308 308 308 309 311 311 311 312 312 313 312 312 312 312 312 313 313 313 313 313 313 313 314 313 313 313 313 313 313 313 313 313 313 313 313 313 313 313 313 313 314 315 316 317 318 319 321 322 323 325 326 327 327 327 327 327 326 324 322 322 320 320 320 319 318 317 315 313 312 311 311 311 311 311 311 310
313 313 313 311 311 317 320 315 312 312 316 317 313 313 314 314 317 318 315 313 314 313 311 308 308 309 310 311 312 312 312 312 312 312 312 313 313 312 313 313 313 313 313 313 313 313 313 313 313 313 313 313 313 314 313 313 313 313 313 313 314 315 316 317 318 320 321 322 323 324 325 325 325 326 327 328 328 326 323 321 321 321 321 321 319 317 314 312 311 311 311 311 311 311 311 310 308
311 313 312 312 315 317 317 317 316 315 315 318 317 312 311 312 315 317 315 314 316 315 313 311 308 308 309 311 312 311 311 311 311 311 312 312 313 313 313 313 313 313 313 312 312 312 312 312 312 312 313 313 313 313 313 314 314 314 314 314 315 316 317 319 320 321 322 323 323 324 325 325 324 324 326 328 327 325 323 321 321 321 321 320 318 315 312 311 311 311 311 311 311 310 309 307 306
307 310 309 311 317 316 315 315 315 316 316 317 319 317 315 314 313 314 313 313 314 313 313 314 310 308 310 311 311 311 311 312 311 311 312 312 313 312 312 312 312 312 312 312 312 312 312 312 312 312 311 311 312 312 312 313 313 314 314 314 315 317 318 320 321 321 322 322 322 323 323 324 324 323 325 327 325 324 323 321 320 321 320 319 316 313 311 311 311 311 311 311 310 309 307 305 304
309 311 311 310 311 313 315 314 313 317 318 318 319 319 320 319 314 312 313 313 314 314 315 314 310 309 310 310 311 311 311 312 311 312 312 312 312 312 312 312 312 312 312 312 312 312 312 312 312 312 311 311 311 311 310 311 312 313 313 314 315 316 317 319 319 320 321 320 321 321 321 323 323 322 325 327 325 324 323 321 320 321 320 317 314 312 311 311 311 311 311 310 308 306 305 304 303
311 312 311 311 311 312 314 313 311 313 316 319 318 315 319 320 313 311 315 315 315 312 311 311 308 308 310 310 311 311 311 311 312 312 312 312 312 312 312 312 312 312 313 312 313 313 312 313 313 312 312 312 311 311 310 310 310 311 312 313 313 314 315 316 316 317 317 317 318 318 319 322 321 321 325 327 324 324 324 321 320 320 319 316 312 311 311 311 311 310 310 308 305 304 304 303 302
Wind_Speed
5 4 5 6 7 5 5 4 1 2 3 2 1 1 1 1 0 1 2 2 2 4 7 5 12 17 7 2 4 2 4 5 5 3 2 5 13 18 16 14 12 11 10 9 8 7 10 13 14 14 13 12 10 10 10 10 9 7 5 3 2 1 4 7 9 9 8 8 9 11 10 10 11 11 10 10 10 10 10 10 11 14 14 13 13 13 12 13 15 15 16 17 17 16 16 16 15
5 5 5 5 7 5 3 3 1 2 3 2 1 1 1 1 0 3 5 4 2 5 8 10 16 14 4 2 4 3 3 4 6 5 6 13 19 19 17 14 12 11 9 8 7 6 8 11 14 12 11 11 10 9 9 10 10 7 5 4 3 2 6 10 11 9 8 7 8 10 10 10 11 11 12 11 11 11 12 11 11 14 14 13 13 14 14 16 16 17 18 17 16 16 15 14 14
6 5 5 5 6 5 2 3 1 0 3 1 2 2 1 1 3 5 6 4 7 13 13 14 13 7 3 4 3 1 2 4 7 8 13 20 21 19 17 14 12 10 9 7 6 5 7 10 12 13 12 11 10 9 8 9 9 6 5 5 5 6 9 10 11 9 7 7 7 9 10 11 11 12 12 11 11 11 12 11 12 14 14 13 14 15 16 18 16 16 18 16 14 14 13 13 12
5 5 4 5 4 4 3 3 1 2 2 1 1 2 2 4 5 5 6 10 16 17 13 12 7 4 2 1 2 1 3 5 8 10 17 23 20 19 18 15 13 10 9 7 5 5 6 8 10 12 12 11 11 10 8 8 7 6 6 6 6 8 9 9 11 8 7 7 8 9 9 11 11 11 12 12 12 12 12 12 13 14 14 13 14 15 17 18 14 13 16 15 13 12 12 12 11
4 4 4 5 3 2 3 2 1 2 1 3 1 2 4 5 5 4 9 17 18 11 7 9 4 4 3 1 3 1 4 7 9 13 19 22 19 19 18 15 13 11 9 6 5 4 5 7 8 10 11 11 11 11 8 6 7 7 7 7 6 8 8 8 9 7 6 7 9 10 10 11 11 11 12 12 13 13 13 14 14 14 14 13 14 15 16 16 14 13 14 13 12 12 12 12 12
2 2 3 3 2 2 2 1 0 0 2 4 1 3 4 6 7 9 13 16 11 3 3 6 3 5 3 2 3 3 7 6 10 16 21 22 19 19 18 15 13 11 9 6 5 4 5 7 8 10 11 11 11 10 8 5 6 8 8 9 7 7 7 8 8 7 8 8 10 11 10 10 11 12 13 13 13 14 14 14 14 14 14 14 14 15 15 15 14 14 14 14 13 13 13 13 13
1 1 2 2 3 3 2 1 2 2 2 3 2 3 3 7 12 13 12 10 6 4 3 5 5 6 3 3 4 5 7 6 12 19 21 21 19 18 17 15 14 11 9 6 5 5 6 6 7 8 9 10 10 10 7 5 6 8 8 8 8 7 6 8 9 9 9 9 10 11 11 11 12 13 13 14 14 14 14 14 13 14 14 14 13 14 14 14 14 14 14 15 15 14 13 13 13
2 2 1 2 2 4 3 1 2 2 1 2 3 3 3 9 17 14 11 6 4 5 5 7 7 4 3 5 4 5 6 9 16 20 21 21 19 17 16 16 14 12 9 6 5 5 6 6 6 7 8 8 10 11 9 6 4 7 9 8 10 10 7 8 9 10 10 10 10 11 12 13 14 14 14 14 14 14 13 13 13 13 14 13 13 13 13 13 13 14 15 15 15 14 14 14 13
2 2 1 3 1 2 2 1 2 2 3 3 4 5 4 11 18 14 10 4 3 4 6 10 7 1 4 6 4 7 10 13 18 20 21 21 19 17 15 15 13 12 9 7 6 6 6 6 6 6 7 8 10 11 10 7 5 7 10 9 11 11 8 7 9 10 11 11 11 13 15 15 15 15 15 15 14 13 13 13 12 12 13 13 13 12 13 13 13 14 15 15 15 15 15 14 13
1 1 2 3 2 2 3 2 1 2 4 4 5 6 5 15 17 13 10 4 4 4 8 11 4 2 7 7 6 11 14 15 20 21 21 20 18 16 15 14 12 10 8 7 7 7 7 6 6 5 6 7 8 10 10 7 6 9 11 10 9 9 8 7 9 11 12 12 13 14 15 15 15 15 15 15 14 14 14 14 14 13 13 13 13 14 14 14 14 15 15 15 15 15 15 14 14
0 2 3 3 2 1 2 2 2 3 4 4 6 5 9 17 15 11 8 3 5 5 11 9 3 8 9 5 8 13 16 18 21 23 22 21 18 16 15 15 13 10 7 6 6 7 8 7 7 6 6 7 7 8 10 8 8 10 11 10 9 8 8 9 10 12 13 13 14 15 15 15 15 15 15 15 15 15 15 15 15 15 14 14 14 15 15 15 15 15 15 15 15 15 15 14 14
1 1 3 3 2 2 2 2 3 5 5 4 1 5 12 19 13 9 8 4 6 7 11 9 4 11 6 2 9 14 18 20 22 22 22 22 19 16 15 15 14 11 8 6 6 7 8 8 8 7 7 7 6 7 8 9 10 11 11 10 9 9 8 9 10 12 14 14 15 15 14 14 14 14 14 14 15 15 16 16 16 16 16 15 15 15 15 15 15 15 15 15 14 14 14 14 13
2 2 3 3 2 2 3 1 3 4 5 2 1 6 14 18 12 11 11 6 8 7 9 9 6 9 4 2 10 16 20 22 22 22 23 21 19 17 15 15 14 12 10 7 6 7 7 8 8 8 8 7 7 7 8 10 11 11 11 10 10 9 9 9 10 12 14 14 15 15 14 13 13 13 13 14 14 14 14 15 15 16 16 15 15 15 15 15 15 14 14 14 14 13 13 13 12
3 4 3 2 1 1 3 0 2 2 3 3 1 8 15 13 9 11 11 7 9 9 8 10 9 7 4 3 10 20 22 22 23 22 23 21 19 18 16 16 15 14 11 9 8 7 7 7 8 8 8 8 8 8 9 10 12 12 11 10 10 9 9 9 10 12 14 15 15 14 13 12 13 13 13 13 13 13 13 14 14 15 15 15 14 14 14 13 13 13 14 14 13 13 12 12 12
3 4 4 3 2 0 3 0 1 2 2 2 1 9 12 8 7 10 10 7 9 10 7 9 11 5 4 5 8 20 23 22 24 22 23 21 20 19 17 17 16 15 13 10 9 8 8 7 8 8 8 9 9 10 11 12 12 11 11 11 10 10 10 9 10 11 12 13 14 13 13 12 12 12 12 13 12 12 12 13 13 13 13 13 12 12 12 12 12 12 12 12 12 12 12 11 11
3 3 4 3 2 1 3 2 2 2 3 3 2 8 8 6 8 9 9 7 7 11 9 9 14 8 3 6 6 17 25 23 24 23 23 22 21 21 19 18 17 16 15 13 11 9 9 8 8 8 9 9 9 11 12 13 12 12 11 10 10 10 10 9 10 11 11 12 12 12 12 11 11 11 11 11 11 11 11 11 11 11 11 11 10 10 10 10 10 11 11 11 11 11 11 11 10
5 2 4 1 2 2 4 4 3 2 3 2 2 8 6 3 8 7 6 9 7 11 13 10 15 14 6 5 4 15 26 24 24 25 24 24 23 23 22 21 20 20 18 15 14 12 10 9 9 9 9 10 10 11 12 13 12 12 11 10 10 10 10 10 10 11 11 12 12 11 11 11 10 10 10 9 9 9 9 9 9 9 8 8 8 8 9 9 9 9 9 9 9 9 9 9 9
4 2 2 1 2 3 5 6 7 3 0 1 1 8 7 3 7 8 4 8 9 9 14 13 14 17 13 8 4 13 26 26 25 26 26 27 26 26 25 24 23 22 20 18 16 14 12 11 10 10 10 10 10 10 11 12 12 12 12 11 11 10 10 10 10 11 11 11 11 11 10 10 9 9 8 8 8 7 7 7 7 6 6 6 6 7 7 7 7 8 8 8 8 8 8 8 8
3 3 2 3 4 3 4 6 8 3 2 3 2 4 9 6 7 10 5 6 9 8 11 14 14 17 16 12 6 12 25 27 26 27 27 28 29 29 28 26 25 23 22 20 18 16 14 12 11 10 11 11 11 11 11 11 11 12 12 11 11 11 10 10 10 10 10 10 10 10 9 9 8 7 7 7 6 6 5 5 4 4 4 5 5 5 5 5 6 6 6 6 6 6 6 7 7
2 3 2 4 5 3 2 3 5 2 3 4 4 1 7 8 9 10 7 5 7 10 13 14 16 19 18 15 9 12 24 28 27 27 28 29 29 30 29 27 26 24 22 21 19 18 16 14 13 12 11 11 11 11 11 11 11 12 12 12 11 11 11 10 10 10 10 10 9 9 8 7 7 6 6 5 4 4 3 3 2 2 2 3 3 3 4 4 4 4 4 5 5 5 5 6 6
3 3 3 3 4 2 0 1 1 1 3 4 3 1 4 8 10 10 8 4 5 15 21 20 20 20 19 19 14 13 22 28 28 28 28 29 29 30 29 27 25 23 22 21 20 19 17 16 15 14 13 12 12 11 11 11 11 12 12 12 12 12 11 11 11 10 10 9 9 8 7 7 6 5 5 4 3 3 2 2 1 1 1 1 2 2 2 3 3 4 4 4 5 5 5 6 6
3 2 1 3 4 3 2 1 1 2 2 3 3 2 3 4 9 13 12 7 7 13 18 20 21 20 17 19 18 15 20 27 29 29 30 30 30 30 29 28 26 24 24 23 22 20 19 17 16 15 15 14 13 12 11 11 12 12 12 13 13 12 12 11 11 10 10 9 9 8 7 6 6 5 4 4 3 3 3 2 2 2 1 1 2 2 3 3 3 4 4 5 5 6 7 7 7
2 0 2 4 2 1 2 3 3 5 4 4 4 3 3 4 6 12 16 18 15 9 8 11 14 17 18 18 19 18 19 24 27 29 30 30 31 31 30 29 27 26 25 24 23 22 21 20 18 17 16 15 14 14 13 12 12 12 13 13 13 12 12 12 11 10 10 9 9 9 8 7 6 5 5 4 4 4 4 4 4 3 3 3 3 3 4 4 5 5 6 6 6 7 8 8 8
1 1 2 4 1 1 4 8 7 7 6 6 6 5 4 6 5 6 16 26 21 12 6 4 7 13 18 19 19 20 19 21 22 24 28 30 30 30 30 29 28 27 25 24 24 23 23 21 20 19 18 17 16 15 15 14 13 13 13 13 13 13 12 12 11 11 10 10 9 9 9 8 7 7 6 6 6 6 6 6 6 6 5 5 5 5 5 6 6 7 7 8 8 8 8 8 8
2 2 3 4 2 2 6 10 7 6 6 6 7 6 5 7 6 6 16 23 21 19 13 7 6 9 16 19 19 19 20 20 20 23 26 28 29 30 30 30 29 28 26 25 25 25 24 23 22 22 20 19 18 17 17 16 15 14 14 13 13 13 13 12 12 12 11 11 10 10 10 9 9 8 8 7 7 7 8 8 8 8 7 7 7 8 8 8 8 9 9 9 9 9 9 9 9
7 8 5 4 6 7 8 8 7 6 6 4 6 6 5 5 5 9 18 19 16 18 19 16 12 10 12 16 19 20 20 21 20 22 24 26 29 30 31 31 31 30 28 26 26 26 24 24 24 23 22 21 20 20 19 17 16 16 15 14 13 13 13 13 13 13 12 12 11 11 11 10 10 9 9 9 9 9 10 10 10 10 10 9 10 10 10 11 11 11 11 11 11 11 11 11 11
7 11 9 9 11 10 8 7 9 9 7 6 6 4 3 4 3 6 10 9 12 17 18 19 18 16 14 14 18 20 21 21 20 20 22 26 29 30 31 31 32 31 29 28 28 26 25 26 26 24 24 23 22 22 20 19 18 17 16 15 15 15 15 14 14 14 14 13 13 13 12 12 12 12 12 11 11 11 11 12 12 12 12 12 12 12 12 13 13 13 14 14 14 14 13 13 13
5 7 6 9 12 11 10 9 7 6 5 6 6 2 1 4 3 9 9 4 7 14 16 17 19 20 18 16 18 20 22 21 22 23 24 25 26 28 29 30 31 30 29 29 28 27 26 26 26 25 25 24 24 24 22 22 20 19 18 18 17 17 17 17 17 16 16 15 15 15 14 14 14 14 14 14 13 13 14 14 14 13 13 13 13 13 14 14 15 15 16 16 16 16 16 15 16
5 5 3 5 5 7 11 9 4 2 4 4 3 2 3 3 7 14 12 8 7 10 13 14 17 19 19 18 18 21 22 23 25 25 23 23 24 25 27 27 28 28 28 27 26 26 26 26 25 24 24 25 25 25 24 24 22 21 21 20 19 19 19 19 19 18 17 17 16 16 15 15 14 14 14 14 14 14 14 14 14 14 14 14 14 15 15 16 18 17 17 17 17 16 16 16 16
4 3 2 2 4 3 8 8 6 4 4 3 3 3 5 5 15 17 11 10 11 12 13 14 14 16 18 19 20 21 23 25 25 24 23 23 24 25 26 27 27 27 27 26 26 26 26 26 25 24 24 25 25 25 25 25 25 24 23 22 22 21 21 21 20 19 19 19 18 17 16 16 14 14 14 14 14 14 14 14 15 15 15 15 16 16 16 16 18 18 17 17 16 15 14 13 12
3 2 1 1 1 4 5 4 8 5 4 5 4 3 5 7 14 14 11 12 12 14 15 14 14 15 16 19 20 22 23 24 24 24 24 25 24 24 26 27 28 28 28 27 26 26 26 26 26 25 25 25 25 25 25 26 26 25 25 24 23 23 23 22 21 21 21 20 20 19 18 17 16 15 15 15 15 15 15 15 16 16 16 17 17 17 16 15 16 16 16 16 14 12 12 12 9
2 2 1 2 3 4 5 2 9 7 4 7 6 3 5 8 10 8 11 15 14 16 16 15 16 15 16 18 20 22 23 24 25 26 26 25 24 24 25 27 28 29 28 27 26 26 26 27 27 27 26 26 26 25 24 25 26 26 26 26 25 25 25 24 23 23 23 22 22 22 20 19 18 17 16 16 16 16 16 17 17 17 16 16 16 16 15 14 14 15 15 15 14 12 13 12 8
2 3 3 2 3 2 3 1 4 4 3 6 7 4 3 5 5 3 5 12 14 17 18 18 18 18 18 19 20 22 23 24 26 26 25 24 24 24 24 25 27 28 28 28 27 27 27 27 28 28 28 28 27 26 25 25 25 26 27 27 27 27 27 26 25 25 25 25 25 24 23 21 20 19 18 17 17 17 17 17 17 16 15 15 15 14 13 13 13 14 14 14 13 13 14 13 7
2 3 2 1 3 2 2 2 2 1 1 4 5 5 5 7 10 8 4 5 8 12 16 17 17 19 20 20 22 23 24 25 25 24 21 21 22 24 25 25 26 28 28 28 28 27 27 27 28 29 29 29 29 28 26 26 25 26 26 27 27 28 28 28 27 27 27 27 27 26 25 23 22 21 19 19 18 18 17 17 16 15 14 14 15 15 14 14 14 13 13 13 14 14 14 11 7
5 5 3 2 2 3 3 3 1 1 0 3 3 2 6 9 16 20 14 9 10 11 11 13 15 17 19 21 24 24 25 26 25 24 21 21 22 24 26 26 26 27 28 29 29 28 28 27 28 29 30 30 30 29 28 28 28 27 27 27 28 29 30 30 30 30 29 29 28 27 26 25 24 22 21 20 20 19 18 18 17 15 14 14 15 16 15 14 14 14 13 12 13 14 13 9 8
7 7 5 4 3 2 3 4 3 2 2 3 5 5 6 8 11 19 19 13 14 16 13 15 17 17 18 20 23 25 27 27 24 23 24 24 24 24 25 27 27 28 28 29 30 30 29 29 29 30 30 31 31 32 31 31 31 31 30 30 30 31 31 32 33 32 31 31 30 28 27 26 24 22 21 21 21 20 20 18 17 16 15 15 16 17 16 15 14 14 13 13 14 12 9 7 9
9 7 5 5 5 4 4 3 3 2 2 3 5 5 7 9 9 16 22 13 12 17 16 18 20 20 20 20 21 23 26 26 23 23 25 25 25 24 25 26 27 29 30 30 31 31 30 30 31 31 30 31 33 34 34 35 34 33 33 33 33 32 32 33 34 33 33 32 31 30 28 26 24 23 22 22 22 21 21 19 17 17 17 17 17 17 17 17 15 14 13 12 10 8 5 5 7
7 7 5 4 4 4 4 4 3 1 2 2 2 2 6 9 8 15 21 11 11 19 18 19 22 22 23 22 23 23 22 23 22 23 25 25 25 24 24 25 27 29 29 29 29 30 30 30 31 30 29 32 34 35 35 36 36 34 34 33 32 32 33 33 34 33 33 32 32 30 28 27 25 24 23 23 23 22 21 19 19 19 19 18 18 18 16 15 15 14 13 9 5 5 4 5 8
5 5 6 3 3 2 4 3 3 2 1 2 2 3 7 9 8 13 18 13 15 24 24 24 25 24 26 26 26 26 25 23 21 21 22 23 24 25 24 25 26 27 27 28 29 29 31 31 31 30 30 32 33 34 36 36 36 35 34 33 32 32 32 32 32 32 31 30 30 29 27 27 25 24 23 23 23 22 21 20 20 20 20 19 18 18 16 14 14 14 13 8 6 7 7 9 10
3 4 6 3 4 2 2 2 4 2 1 2 3 4 6 7 6 10 18 18 20 27 28 28 28 26 27 27 27 28 28 27 25 24 22 21 22 24 26 26 26 27 27 28 29 30 31 31 31 31 31 32 33 33 34 35 35 34 34 33 32 32 32 32 31 31 30 30 29 28 28 27 26 25 24 24 24 23 21 20 22 20 19 19 18 18 17 16 17 15 13 10 9 10 9 10 11
1 3 6 4 4 4 2 0 3 3 4 3 4 5 5 4 5 7 11 11 14 21 23 24 28 27 27 28 28 28 27 28 27 27 26 24 22 23 25 27 27 27 28 29 29 29 30 30 31 31 32 33 33 32 32 33 34 35 35 35 35 35 35 34 33 32 31 30 30 29 29 27 27 26 24 24 23 22 22 21 22 21 19 19 18 19 18 18 18 16 13 12 12 12 12 11 10
2 4 6 7 7 5 3 3 4 4 3 3 4 3 5 3 5 7 6 4 7 13 14 19 26 25 26 28 27 27 28 28 28 28 28 27 26 23 24 27 29 30 29 28 28 28 28 29 30 32 33 33 33 33 32 33 34 35 36 37 38 38 38 37 36 33 31 30 29 29 28 26 26 25 24 24 22 23 23 21 22 23 22 20 20 20 19 17 18 16 14 14 14 16 18 16 12
2 5 6 7 7 7 5 4 4 2 2 2 3 1 5 5 6 9 7 5 9 10 10 16 24 25 26 28 27 27 28 28 29 29 28 29 28 27 26 26 29 30 29 27 27 27 28 28 30 31 32 33 34 34 34 34 35 36 37 38 38 38 38 38 35 33 30 29 28 27 26 24 23 22 22 22 22 24 22 20 24 24 20 19 19 18 17 16 16 16 16 17 16 18 19 19 15
3 6 8 8 7 7 6 6 3 2 1 3 3 3 3 6 7 8 5 6 11 10 9 13 19 23 25 28 30 29 29 29 31 31 30 30 30 30 30 28 28 28 28 28 28 26 26 27 28 29 30 31 33 34 35 36 37 37 38 38 38 39 38 37 35 32 30 28 28 27 25 23 22 21 21 21 22 24 21 21 27 24 19 20 18 15 16 17 17 17 18 17 18 19 18 17 17
5 6 7 7 7 6 5 6 3 1 2 3 3 2 2 6 6 4 2 6 11 10 9 11 16 22 23 25 28 28 28 28 30 31 30 30 31 31 32 31 31 30 30 31 31 28 27 27 28 29 29 30 31 33 35 37 37 38 38 38 39 39 38 37 35 33 31 30 29 28 26 24 22 21 21 21 22 23 22 24 28 23 19 21 22 20 19 19 19 20 20 18 17 21 21 20 21
4 5 6 4 4 5 4 4 3 1 1 4 4 2 2 6 4 3 1 5 8 7 7 10 17 23 21 21 22 21 23 24 24 25 26 27 28 30 32 32 33 34 35 36 35 33 32 31 30 30 30 30 29 30 33 36 37 38 39 39 40 39 38 37 36 35 34 33 32 30 28 26 24 22 21 22 22 23 24 24 26 24 19 21 27 24 20 20 21 23 23 21 20 23 24 23 23
8 7 6 6 5 4 3 2 3 1 3 4 6 6 4 4 4 4 4 4 6 7 6 8 14 19 18 19 19 18 19 20 18 19 20 21 22 24 28 31 32 33 35 37 37 35 34 33 32 31 30 30 29 29 30 33 36 38 39 39 40 39 39 38 37 37 36 35 34 32 31 28 26 24 22 22 23 23 24 24 25 25 22 23 25 21 19 21 24 25 25 24 24 24 22 21 20
8 5 4 5 3 3 3 3 2 1 5 3 3 4 5 6 5 3 4 5 4 6 6 6 11 16 18 19 17 13 13 14 14 14 15 15 15 15 18 22 26 29 31 34 35 35 34 33 33 32 30 30 30 30 30 31 33 36 38 38 39 38 38 39 38 38 37 36 35 33 31 30 27 25 24 24 24 24 25 25 25 25 24 24 21 18 21 24 26 27 25 22 20 19 18 17 15
4 5 6 5 2 1 0 2 1 3 5 2 2 3 3 7 6 5 8 10 9 9 12 12 13 18 22 22 20 16 15 16 15 14 13 13 13 13 15 16 19 22 26 29 32 34 33 33 34 33 31 30 30 30 30 31 31 33 35 37 38 37 37 38 38 37 37 36 35 34 32 30 28 26 24 24 24 25 25 25 24 24 24 23 21 22 26 27 27 25 21 17 17 18 18 16 14
5 5 6 5 4 4 4 3 1 4 4 2 2 2 3 5 4 7 11 13 13 12 15 19 19 21 25 26 25 24 26 26 23 19 18 17 18 19 19 18 17 18 21 24 27 30 32 32 34 34 32 30 30 31 30 31 31 31 32 34 35 36 37 37 37 37 36 35 35 34 32 31 28 26 24 23 22 23 23 23 23 23 21 22 23 24 26 25 24 21 20 19 17 17 18 15 13
6 4 5 5 4 5 5 4 2 4 3 1 1 2 3 2 2 6 9 13 16 16 18 21 23 24 25 25 24 25 27 28 26 25 24 23 24 24 23 21 19 17 18 20 22 25 28 29 30 31 31 29 30 30 30 31 31 31 31 31 32 34 35 36 36 36 35 34 33 32 31 30 28 26 24 22 21 22 22 22 23 22 21 23 23 22 21 21 20 20 22 21 17 16 15 13 12
3 2 4 3 4 5 3 3 5 4 1 1 2 4 4 3 5 9 10 12 14 17 19 20 22 24 22 22 22 22 23 22 20 19 18 17 18 20 21 21 19 17 16 16 18 20 24 25 27 28 28 28 29 29 30 30 30 30 31 31 31 32 33 34 35 35 34 32 31 30 29 28 26 24 23 22 22 22 23 22 22 22 22 22 22 20 19 19 19 19 19 18 16 16 14 13 12
2 2 4 3 3 6 5 1 0 3 1 2 2 4 5 3 6 9 7 7 10 13 15 16 19 19 18 20 21 20 21 18 15 13 12 12 13 13 14 15 16 14 13 13 13 15 18 20 22 24 25 26 28 29 29 30 30 31 31 32 32 33 33 33 33 32 32 30 29 28 28 26 25 23 22 22 22 23 24 23 22 22 22 21 21 20 19 19 18 17 17 17 16 15 15 14 12
5 4 6 3 2 3 4 1 2 3 2 4 2 5 5 2 4 5 4 5 8 9 10 11 12 12 13 17 18 18 17 15 14 12 11 12 10 9 9 10 11 11 10 10 11 12 13 15 17 19 21 23 25 27 28 29 30 31 31 31 32 33 33 32 31 30 29 28 28 27 27 26 25 24 22 22 23 24 24 24 22 22 22 22 22 19 18 18 18 17 18 18 17 16 15 14 12
4 6 7 5 2 2 2 3 1 1 2 4 4 4 4 5 6 5 4 7 9 10 10 9 9 12 15 17 17 15 14 12 11 11 10 10 8 8 7 8 8 9 9 10 11 12 12 14 16 17 19 21 24 26 27 29 30 30 31 31 31 31 31 31 30 29 28 28 27 27 26 26 26 25 24 24 26 25 25 24 23 24 24 23 21 18 18 19 19 19 19 19 18 17 15 14 13
4 4 5 2 2 4 3 3 3 3 3 3 3 4 3 6 7 7 10 12 11 11 11 9 11 15 16 15 15 15 15 12 10 9 9 8 7 7 6 6 7 8 9 9 10 11 12 13 14 16 18 20 22 25 27 29 30 30 31 30 30 30 30 30 29 28 28 27 27 27 27 26 26 25 25 26 27 26 26 25 24 25 25 22 20 19 20 20 20 21 20 19 18 17 15 14 13
3 5 6 4 2 2 2 1 2 4 4 3 2 4 6 6 4 8 12 11 10 11 10 10 12 12 9 10 13 14 11 7 5 5 6 6 5 5 5 6 6 6 7 7 7 8 8 10 11 12 13 15 17 20 23 26 28 29 30 30 30 30 29 29 29 28 28 27 27 28 27 26 27 26 27 28 28 27 27 25 24 25 24 20 20 20 21 21 22 22 21 19 18 17 16 15 14
8 7 8 9 6 4 3 3 1 2 3 4 2 4 8 5 5 8 9 9 11 12 10 9 11 11 9 9 9 8 4 2 3 4 4 4 3 3 4 4 5 5 5 5 5 5 6 7 8 9 10 11 13 15 17 21 24 27 29 29 28 28 28 28 28 28 28 28 28 28 27 27 28 27 28 30 29 27 27 26 25 25 23 20 21 22 22 23 23 23 22 21 19 18 16 16 14
Wind_Direction
302 313 324 331 338 320 307 341 18 15 65 98 312 177 209 226 175 174 171 174 142 193 201 179 161 158 150 192 204 164 111 155 161 135 174 163 147 148 155 164 162 155 152 141 136 134 147 169 175 167 157 150 158 167 169 175 179 184 190 194 190 125 75 74 82 89 104 109 96 97 101 101 99 98 99 100 101 100 98 94 91 92 91 90 91 89 86 85 89 94 91 85 83 80 77 76 77
299 307 326 332 336 336 303 357 62 329 40 82 244 193 252 315 184 192 182 200 187 163 170 158 157 164 172 149 149 115 113 150 143 129 137 146 146 150 158 160 157 154 151 143 136 138 145 165 179 181 176 165 161 164 163 171 176 183 189 175 170 122 95 93 95 91 96 107 101 95 93 93 92 94 92 92 96 97 95 92 92 94 91 86 86 87 87 85 85 89 86 80 80 82 80 78 78
294 300 326 332 328 349 353 21 60 117 61 85 264 239 227 155 202 205 190 191 141 134 137 145 152 162 155 124 126 121 181 163 140 131 136 148 152 153 159 157 153 155 153 145 136 140 146 157 175 185 189 184 178 181 173 168 169 169 162 143 137 111 104 112 114 110 104 104 108 102 94 91 85 87 90 88 90 92 92 90 90 94 93 88 86 89 90 84 79 87 89 83 82 85 84 81 79
290 300 326 338 335 3 41 44 109 119 88 201 300 253 216 184 202 212 177 142 130 130 133 141 146 166 173 144 153 152 192 174 155 147 146 154 157 154 155 155 154 156 154 150 140 142 148 153 169 182 189 190 190 197 188 170 164 154 141 130 125 114 112 122 125 127 121 109 112 108 95 91 87 85 86 83 83 87 91 90 90 91 91 88 87 90 93 91 88 94 98 96 89 85 82 79 78
283 309 328 331 340 36 78 71 99 90 140 188 64 261 220 197 197 187 157 143 132 122 140 148 132 169 171 166 177 189 182 170 164 159 153 156 157 156 154 152 154 157 157 150 145 146 148 150 162 173 181 186 192 200 197 180 162 151 136 126 123 122 127 128 124 135 130 111 111 103 87 86 88 87 85 84 84 86 87 87 89 91 89 86 87 89 93 97 96 93 97 98 89 80 76 74 75
270 325 358 3 67 87 113 94 80 76 240 175 137 263 225 200 183 157 155 156 151 112 159 171 161 162 146 148 174 163 163 170 172 163 155 157 158 157 153 151 155 157 159 153 145 149 146 150 161 167 172 176 187 193 193 180 154 153 140 126 123 115 132 133 118 121 117 104 104 99 94 91 90 91 90 89 88 86 85 85 87 90 93 89 87 87 89 91 90 87 89 89 84 78 73 73 75
216 275 6 64 74 50 101 151 209 236 244 169 170 244 232 196 169 148 153 168 197 245 226 203 182 156 130 133 146 150 167 182 169 161 156 156 159 158 154 152 158 159 158 156 148 147 145 151 160 162 165 164 172 174 163 150 136 146 143 130 124 102 107 122 115 113 109 107 106 102 101 99 95 95 94 92 90 89 88 87 86 90 95 93 89 90 90 88 88 87 84 81 78 75 72 74 73
187 246 16 98 42 27 87 125 238 223 244 244 243 242 252 183 164 152 157 172 214 227 221 192 171 153 151 144 148 166 169 166 160 158 157 157 160 160 158 155 158 161 157 157 151 144 144 149 156 159 161 157 156 151 143 150 140 136 137 129 123 109 101 111 113 113 112 111 105 100 100 98 98 97 94 92 90 89 89 88 87 90 94 95 92 92 93 91 89 87 82 78 76 75 74 74 72
160 218 65 86 69 37 47 331 272 253 263 264 255 252 245 173 164 156 161 188 205 202 201 178 169 201 176 152 140 160 155 154 157 159 160 160 164 163 160 157 157 159 156 156 150 140 142 147 153 156 158 155 152 145 146 161 157 138 131 125 122 115 116 122 122 117 113 111 102 102 104 101 98 95 92 90 87 87 88 89 89 89 91 94 93 91 94 93 89 84 80 76 75 75 74 73 72
114 145 117 87 94 38 340 300 271 272 255 255 263 255 196 167 164 157 160 186 201 195 178 171 191 211 168 154 139 154 156 157 160 161 164 164 165 167 160 156 157 159 157 155 148 140 142 146 151 152 150 149 149 146 151 156 147 141 130 124 122 116 117 117 122 118 112 112 109 107 105 101 96 92 90 89 88 87 87 89 90 89 88 88 90 90 89 87 84 81 78 75 73 73 72 70 69
170 70 112 88 82 106 263 254 274 277 267 293 279 234 176 167 158 155 161 178 193 177 168 174 223 171 155 152 152 160 162 164 165 161 164 167 167 170 164 159 160 162 164 157 145 142 143 148 152 150 150 144 142 151 153 146 142 140 128 124 122 120 115 110 119 119 115 115 114 109 103 100 95 94 94 93 92 90 90 89 90 91 89 86 86 86 84 82 80 78 77 74 72 71 70 69 66
200 44 84 100 131 184 201 229 267 288 299 319 239 176 167 169 160 163 171 174 179 171 178 188 198 163 144 158 165 168 169 167 166 164 166 168 170 172 170 164 162 164 172 169 148 144 148 153 156 152 155 146 140 156 156 146 147 139 128 127 122 121 118 111 117 119 120 120 115 111 106 102 99 100 99 98 97 94 93 92 92 91 89 86 84 84 83 83 80 79 78 75 73 70 69 68 66
159 136 92 124 163 160 151 206 268 316 317 297 181 169 165 172 177 179 171 165 172 170 192 198 189 167 151 194 174 174 174 169 166 167 170 169 171 175 173 169 167 169 173 175 159 148 154 159 161 157 159 154 147 158 158 147 145 138 129 129 125 122 118 112 114 120 125 123 118 114 109 106 105 104 103 101 97 95 95 93 92 89 88 85 83 83 82 82 81 81 80 77 75 72 69 67 65
124 145 112 133 103 122 152 205 286 359 301 284 323 170 168 178 192 183 168 167 186 179 190 198 187 173 176 194 187 182 174 171 170 170 172 171 174 178 176 174 174 175 176 179 170 155 159 166 166 162 163 160 156 158 157 148 140 137 132 130 129 124 118 115 117 124 129 127 123 119 115 113 110 108 105 101 97 95 94 91 89 86 84 83 81 82 81 82 81 81 80 79 76 72 70 66 64
121 127 95 112 88 143 174 137 155 114 247 256 96 171 175 188 191 189 185 185 200 189 181 190 186 188 209 194 192 187 177 174 174 172 175 173 177 182 180 179 179 180 181 182 178 167 164 169 170 165 164 163 160 156 153 150 142 138 136 134 133 128 123 123 127 130 132 130 127 125 122 120 116 112 107 102 100 96 92 88 85 83 82 81 81 80 79 79 78 77 75 75 74 71 68 64 61
130 119 74 97 131 209 184 161 142 110 250 229 157 180 180 196 183 187 206 203 202 194 191 193 192 199 207 188 186 184 181 178 176 175 179 178 181 185 183 183 184 185 186 188 184 178 170 170 171 165 163 162 160 155 151 151 147 144 142 140 140 136 133 133 137 138 135 133 131 130 128 125 121 116 110 105 102 97 92 89 84 82 81 80 79 78 76 75 73 71 68 66 65 64 62 59 55
135 101 62 92 166 211 191 174 176 158 258 269 172 187 176 197 187 184 210 208 203 199 203 208 205 209 209 196 195 187 185 181 177 179 182 183 186 187 187 187 188 189 189 191 189 185 179 175 173 168 163 162 161 157 155 154 152 150 147 148 148 145 143 140 143 144 140 138 136 135 133 131 126 119 115 110 105 99 95 90 85 82 79 78 76 74 72 69 67 64 62 58 54 52 52 52 49
143 106 97 210 184 200 189 179 189 158 308 305 135 188 185 196 193 186 193 203 207 210 211 216 217 217 220 225 226 193 189 184 180 183 186 188 191 192 191 191 192 193 192 192 192 191 188 182 180 175 168 166 166 163 161 160 157 155 155 156 155 152 150 147 147 147 146 144 143 142 140 136 132 127 122 116 112 104 97 92 89 87 81 78 73 70 67 64 61 57 55 51 45 41 38 39 38
126 109 143 219 193 209 203 178 184 154 3 302 341 201 197 209 195 189 199 202 200 211 219 217 220 221 221 221 217 195 192 189 186 187 191 193 195 197 197 196 196 196 196 195 194 195 193 188 188 186 178 174 173 170 168 167 165 163 162 163 162 160 158 154 152 152 152 151 150 149 146 144 140 136 131 125 121 112 106 100 94 92 87 82 75 69 62 57 53 50 47 40 35 30 24 21 19
131 124 170 231 208 224 238 172 179 202 321 317 337 244 208 219 201 191 202 197 196 214 218 211 217 221 217 211 203 195 195 195 194 193 196 198 200 202 203 203 201 200 200 198 197 199 198 193 191 192 190 184 179 176 174 174 172 171 169 169 169 168 165 161 159 159 159 159 159 158 157 155 151 147 144 140 138 133 125 121 114 102 93 82 73 65 53 44 37 33 28 21 15 10 6 2 359
159 145 176 204 179 145 35 178 194 273 310 312 311 271 234 223 205 199 188 174 222 229 225 221 226 225 216 209 203 198 200 201 201 199 200 203 205 206 207 209 208 206 203 201 202 203 202 200 196 196 197 193 189 184 181 180 179 178 176 175 176 174 172 170 169 168 168 168 168 169 169 167 166 163 164 163 163 170 173 174 176 150 89 59 38 30 22 13 7 3 357 352 347 343 341 340 340
154 148 126 141 145 106 52 98 188 298 314 285 265 248 257 205 206 208 190 196 235 238 235 236 240 236 227 219 211 204 204 207 209 208 207 207 208 209 210 211 211 209 206 204 205 206 206 206 203 200 201 201 198 195 192 191 189 188 185 183 182 181 179 179 178 178 177 178 179 180 182 183 183 184 188 194 202 217 225 233 236 251 283 311 329 334 334 332 331 330 328 326 323 323 324 323 325
152 191 74 113 123 113 30 345 294 296 290 261 257 266 248 188 219 219 208 223 235 244 253 247 246 239 232 229 220 215 210 210 214 216 216 214 213 213 212 213 213 212 210 208 208 209 209 209 209 206 205 205 204 204 202 201 201 198 196 193 190 189 188 187 186 186 187 189 191 192 194 197 198 203 209 215 226 238 248 258 263 269 278 287 296 299 301 302 301 305 305 304 306 309 312 314 316
110 170 156 134 66 74 1 335 306 285 266 260 266 268 244 207 226 226 225 234 236 237 252 249 248 235 229 228 225 225 222 219 221 224 224 223 220 217 215 215 216 217 216 214 212 212 212 212 212 212 211 210 209 209 210 209 210 208 206 204 200 198 197 196 195 197 199 200 202 204 207 208 210 215 220 227 235 246 257 264 269 273 276 280 284 284 283 285 286 289 290 291 295 298 300 304 304
236 197 182 166 227 276 335 338 325 289 264 265 257 250 249 228 228 242 246 245 237 235 241 249 258 236 227 228 228 227 225 224 226 226 226 227 225 220 218 218 218 220 220 218 216 215 215 214 215 216 216 214 213 214 215 215 215 214 214 212 209 207 206 204 204 207 209 211 213 215 217 219 222 225 227 233 238 248 256 261 268 271 274 277 278 279 279 280 280 281 284 285 286 289 292 293 294
220 214 219 221 262 280 306 325 345 321 273 255 238 253 265 232 230 257 261 257 242 237 240 244 252 249 234 230 230 228 227 226 227 228 229 228 226 224 223 222 221 222 221 219 219 219 217 216 217 218 219 219 218 217 218 219 219 220 220 219 218 216 214 212 212 214 216 218 220 221 223 225 228 231 232 235 239 246 252 256 262 265 271 273 275 277 277 278 279 280 281 281 283 285 287 287 288
205 214 228 245 265 280 288 293 325 319 283 251 225 258 263 193 186 256 272 267 240 235 238 241 245 249 245 236 232 230 230 231 232 231 229 228 227 228 228 226 225 225 223 221 220 221 220 220 220 220 221 222 223 223 223 223 223 224 224 224 224 223 223 222 221 222 223 225 226 227 228 229 231 234 236 239 242 247 251 253 256 260 265 268 271 274 275 276 276 276 276 277 279 281 282 283 284
173 188 215 255 266 273 275 274 306 324 302 259 226 256 253 153 172 245 261 281 237 231 235 240 241 244 243 238 233 230 232 232 231 230 229 233 234 233 232 229 228 228 227 225 223 223 223 223 223 222 223 225 225 227 227 227 227 227 227 228 228 229 229 229 230 230 231 231 232 232 232 233 235 237 239 243 246 248 251 253 255 259 263 266 269 271 273 273 271 273 275 278 281 281 280 280 280
158 151 180 282 298 276 259 247 255 302 310 274 219 278 273 191 226 245 253 255 246 239 236 239 241 242 239 235 233 231 232 230 227 231 237 242 242 240 238 236 233 232 230 228 227 226 226 225 225 225 226 228 229 229 230 231 231 230 230 231 231 232 232 233 233 233 235 235 235 235 235 236 237 239 241 243 246 248 252 254 256 257 259 262 265 267 270 272 273 274 277 282 284 284 285 286 286
153 127 150 289 351 298 249 229 220 241 272 227 159 266 273 244 240 243 251 250 243 241 240 241 244 243 240 236 234 233 233 231 232 238 243 243 243 244 244 242 239 237 235 232 229 227 227 227 226 227 228 231 232 232 233 233 233 233 233 233 233 233 235 235 235 235 236 236 237 237 237 238 239 241 242 244 247 249 252 254 255 254 255 257 259 262 266 272 278 281 285 287 287 287 288 293 297
147 94 81 196 217 279 278 209 185 199 242 196 159 257 267 271 261 251 247 247 243 241 242 243 244 244 242 240 238 237 236 236 240 242 242 243 243 245 246 246 243 241 240 236 233 229 228 228 228 228 229 232 234 234 234 235 235 235 235 236 236 236 236 237 236 236 237 239 240 241 241 241 242 244 245 247 249 250 252 254 255 256 258 260 260 262 266 269 277 284 290 290 290 292 292 297 303
92 145 244 224 194 262 309 187 180 195 211 175 164 249 266 265 273 273 246 237 236 243 245 243 244 244 242 243 242 242 242 240 241 241 242 243 244 246 247 247 246 245 243 241 239 235 232 230 229 230 231 233 235 235 236 237 238 237 238 238 238 239 239 239 238 238 240 242 243 245 246 246 245 247 249 251 251 252 254 255 258 259 261 265 267 271 273 272 274 280 287 290 292 292 294 302 300
346 194 216 224 178 237 306 290 205 216 193 171 183 225 286 270 265 299 252 233 231 240 247 245 245 246 242 243 244 244 244 241 240 241 243 244 246 247 248 248 248 247 247 246 243 239 236 233 231 232 233 234 236 237 238 239 239 239 239 240 240 241 242 242 241 241 243 244 245 247 248 248 248 248 251 254 255 254 255 257 261 263 265 269 273 280 284 281 279 280 284 290 292 286 288 299 290
246 197 189 178 164 170 220 290 328 323 231 202 189 205 245 273 280 284 278 256 242 241 252 254 252 252 248 245 245 245 245 243 243 244 245 247 248 248 248 248 248 249 249 249 247 244 241 238 236 236 236 236 237 238 239 240 241 241 242 242 242 243 244 245 245 244 245 245 247 248 249 250 250 250 251 254 255 255 256 259 262 264 267 271 273 280 286 287 288 287 286 287 288 283 284 291 282
182 176 165 166 158 147 187 235 290 80 151 224 210 232 246 265 278 274 268 268 263 255 262 268 264 261 257 251 248 247 247 246 248 249 251 250 250 249 248 249 249 249 249 249 250 248 245 242 239 238 238 238 239 240 240 241 242 243 243 243 243 243 243 244 245 245 245 245 246 247 248 249 249 250 251 253 254 254 255 257 261 263 265 267 271 277 283 288 291 291 292 294 293 289 286 287 285
155 164 155 151 163 197 220 232 245 199 161 223 229 230 243 256 271 273 271 264 260 262 263 264 267 267 264 259 254 250 248 250 251 251 251 250 251 251 250 249 249 250 250 249 249 248 247 244 241 239 238 238 239 240 240 240 241 241 242 242 242 241 241 241 242 244 244 245 245 246 247 247 247 248 249 251 253 254 255 256 259 263 264 266 269 273 280 286 288 290 295 297 295 291 287 284 286
136 139 134 147 169 223 247 240 258 223 172 244 238 219 238 251 258 269 271 269 260 262 260 258 262 264 264 263 262 259 254 255 256 253 251 250 250 251 250 249 249 249 248 248 248 247 247 245 244 241 238 238 238 238 239 239 240 239 240 241 241 241 241 241 242 242 242 243 243 243 244 244 244 246 248 249 251 253 254 256 259 262 262 263 265 268 275 280 279 284 293 297 291 282 272 272 284
123 134 137 149 178 222 240 233 282 3 147 254 285 278 255 252 256 266 270 269 259 260 258 258 261 263 264 264 264 264 263 262 259 255 254 253 250 248 247 247 247 248 248 249 249 248 248 247 247 244 240 239 238 238 239 240 240 240 241 243 243 244 244 243 242 242 242 242 243 243 242 241 242 245 246 247 249 252 253 255 258 260 260 260 262 265 269 274 274 277 287 292 278 266 262 272 284
112 130 134 154 180 239 266 260 320 21 145 270 343 324 271 262 261 267 269 261 259 264 260 260 263 265 266 266 265 264 265 265 260 257 256 256 254 249 245 244 244 246 248 248 248 248 247 247 247 245 243 241 239 238 239 240 241 242 243 245 246 248 248 248 247 246 246 245 244 244 242 241 242 243 245 246 248 250 251 252 254 257 259 257 257 260 260 266 272 276 282 271 247 263 270 276 283
108 133 141 184 187 179 226 249 317 358 48 306 323 308 274 271 267 265 266 257 256 264 262 260 260 261 265 266 266 266 265 264 260 257 257 257 256 251 245 242 242 244 245 245 245 246 246 246 245 244 243 243 242 240 240 240 242 243 245 246 248 249 250 250 249 248 245 243 242 241 239 239 240 241 244 245 245 246 247 251 255 256 258 256 254 254 253 259 264 268 273 259 251 266 270 275 283
181 167 157 177 185 172 169 247 327 2 20 15 5 318 277 267 262 255 267 261 252 257 258 257 253 254 262 263 262 264 265 265 262 258 256 255 254 251 246 242 242 243 244 245 246 247 248 248 247 245 244 244 244 242 242 242 242 242 243 243 245 245 246 245 243 241 238 237 237 236 236 237 239 240 242 244 244 243 243 246 254 255 253 254 254 254 253 252 253 258 263 258 259 267 265 270 282
211 226 182 170 165 146 97 45 34 45 350 353 40 326 279 301 284 258 273 293 265 259 260 258 253 252 254 257 259 261 263 263 263 262 259 256 252 250 246 242 241 242 244 245 246 248 250 250 250 248 246 245 244 243 242 242 242 242 241 240 239 239 240 240 238 237 235 236 236 236 237 238 240 241 242 244 244 243 241 241 249 252 251 251 249 252 253 249 248 250 254 254 264 269 261 261 274
203 229 177 150 139 126 108 80 72 103 242 284 71 170 263 304 285 262 270 286 280 272 266 260 258 256 252 256 260 259 259 259 259 260 260 259 255 251 246 242 242 242 243 243 243 244 247 249 250 249 247 245 244 243 242 241 241 241 241 241 240 240 240 241 240 239 238 239 241 242 243 242 243 244 245 245 244 243 240 240 248 248 251 256 251 248 250 246 241 241 245 248 258 266 260 256 266
223 218 160 138 131 143 143 104 106 195 243 328 18 127 252 285 257 250 256 266 275 276 273 267 263 260 253 254 259 258 257 258 259 260 260 262 261 258 253 247 245 244 241 240 239 243 248 252 252 249 248 246 244 242 241 241 240 240 241 242 242 242 242 243 244 244 243 244 246 247 247 247 246 246 247 246 245 245 239 238 248 247 247 256 248 240 248 245 238 240 247 249 251 257 260 260 264
241 203 153 152 143 142 135 106 134 212 42 320 308 103 254 270 256 270 275 243 259 269 271 269 265 263 257 253 257 259 258 258 261 264 263 264 264 263 260 255 251 247 245 244 243 245 253 257 254 250 248 246 244 242 241 240 240 241 242 242 243 243 244 244 245 246 245 246 247 248 248 248 247 246 247 245 245 247 240 237 246 247 244 251 249 243 247 247 243 245 248 248 246 250 256 260 260
212 144 96 85 87 83 89 104 128 79 27 240 227 151 246 270 252 246 253 234 245 256 262 259 262 265 262 254 253 257 262 263 265 268 268 266 264 263 261 257 254 250 248 250 249 248 252 254 251 248 246 246 245 244 242 241 241 241 241 242 243 244 244 245 245 245 245 246 247 247 247 247 247 247 246 247 246 247 245 241 245 246 236 243 253 248 240 243 248 248 245 244 244 248 253 257 258
120 104 73 60 45 44 57 59 84 66 284 236 202 177 190 278 265 211 218 230 221 228 248 257 261 263 259 257 257 261 267 269 268 267 267 267 265 263 261 258 255 253 251 252 252 250 249 247 246 245 245 244 244 245 244 243 242 242 242 243 244 244 245 245 245 245 245 246 247 247 248 248 248 248 247 248 247 246 248 245 246 249 239 237 248 245 234 240 245 246 248 249 248 250 253 257 257
111 97 103 87 36 25 35 3 53 186 254 252 204 159 164 235 256 234 256 284 254 222 231 246 258 264 266 268 271 270 267 267 264 262 260 259 261 264 264 263 259 257 255 255 253 250 246 242 240 242 243 242 242 244 245 245 244 243 243 243 244 244 245 246 246 246 246 247 248 249 250 250 250 250 248 247 246 245 247 246 245 249 245 240 241 235 233 237 240 246 252 248 242 243 248 255 257
105 106 125 109 91 95 130 257 208 225 251 253 158 128 201 242 257 264 263 267 254 227 228 240 254 268 276 280 284 284 276 272 267 262 258 254 259 268 272 271 267 262 259 257 253 247 242 237 236 239 241 241 241 243 244 246 246 246 245 245 245 245 246 247 248 248 249 250 251 251 252 253 252 252 250 249 248 247 248 248 248 249 248 243 236 230 234 238 241 245 248 242 233 233 244 254 257
161 144 154 144 129 151 197 222 248 252 259 265 168 174 268 282 277 241 239 251 259 253 250 259 268 275 280 283 288 291 286 280 273 267 264 264 269 273 273 271 272 270 263 257 251 242 236 233 234 237 239 239 240 242 244 246 247 249 249 248 247 247 248 248 249 250 250 251 252 254 254 256 256 256 255 253 251 250 250 249 250 250 246 242 240 237 236 238 238 232 232 239 240 236 242 248 245
176 149 141 153 152 160 187 195 191 226 250 292 257 211 210 231 260 231 229 251 266 268 265 270 276 279 282 287 291 293 287 282 276 267 264 267 271 273 271 267 267 271 266 257 248 239 233 231 233 236 237 238 241 243 244 245 246 248 249 249 248 248 248 250 251 251 252 253 253 254 255 256 257 257 255 251 248 249 249 248 248 246 239 238 242 241 237 238 237 230 230 237 240 235 232 227 217
197 124 127 191 192 144 140 180 170 174 222 266 222 232 215 214 275 270 252 251 257 258 257 262 269 274 280 287 292 292 290 290 283 268 260 263 271 274 270 261 257 262 262 254 246 238 234 234 235 237 238 240 242 245 245 246 246 246 247 248 247 247 248 249 250 250 251 252 253 254 254 255 256 255 251 246 244 245 246 244 243 241 238 240 243 241 238 239 237 233 230 228 225 219 209 200 196
148 146 184 208 164 120 110 198 89 97 213 259 212 247 285 308 287 280 274 269 267 263 259 257 260 266 275 281 284 287 292 295 288 274 260 260 271 276 266 254 248 250 251 249 246 242 240 239 240 241 242 243 244 246 247 247 246 245 245 245 245 245 246 247 249 249 250 251 251 252 252 251 250 248 244 241 242 244 245 243 240 239 240 243 244 241 236 233 228 222 215 210 205 199 193 190 188
132 182 197 160 97 88 104 156 3 47 235 275 245 241 275 289 269 297 342 321 289 273 270 269 261 253 258 272 281 290 297 294 283 275 263 256 260 260 252 247 246 247 249 250 252 252 252 250 250 249 248 248 248 248 248 248 247 246 245 244 244 244 245 246 248 248 248 249 249 249 249 247 243 238 235 236 239 242 244 242 237 237 240 243 244 238 227 221 215 209 204 199 193 188 188 187 184
138 175 174 141 148 209 135 153 165 124 220 270 290 278 256 209 227 271 297 290 285 276 276 281 267 251 258 276 290 296 296 288 279 273 257 243 238 235 234 237 244 250 253 258 260 261 261 259 258 256 254 253 252 252 251 250 249 248 246 245 244 243 244 245 246 247 247 246 246 246 245 243 239 234 230 231 237 240 241 238 233 233 239 243 241 228 217 212 206 203 200 193 188 186 185 186 188
60 125 154 139 138 175 169 159 165 159 187 245 307 321 263 221 211 208 230 251 262 267 272 272 264 263 270 285 295 296 291 283 276 262 241 227 227 230 232 238 248 253 255 258 260 261 262 261 260 259 258 257 256 256 255 254 253 252 249 247 245 243 243 243 244 244 245 244 244 243 241 239 237 232 229 231 237 239 238 236 232 235 241 241 232 218 210 206 202 199 195 190 188 186 186 190 193
137 148 173 187 146 133 160 173 143 132 153 193 280 292 260 241 202 189 210 230 234 238 249 257 267 280 291 297 297 295 290 277 258 237 219 215 224 234 241 247 252 256 257 260 262 265 268 267 267 266 264 263 261 259 258 256 255 254 253 251 248 247 245 244 243 243 243 243 242 241 239 237 236 232 229 233 237 236 237 237 234 239 243 235 221 212 206 203 200 196 190 188 190 189 190 194 196
176 176 190 189 169 132 154 209 226 97 156 174 175 264 263 240 192 189 202 216 224 226 230 255 281 298 306 300 294 284 268 177 148 150 166 186 210 232 242 247 252 256 261 269 273 276 279 277 277 276 273 272 270 267 263 259 256 253 252 251 250 249 247 246 245 244 243 242 241 240 237 233 234 231 228 233 236 231 233 237 235 239 239 226 213 208 205 202 199 195 190 188 191 194 195 197 198